カタログに戻る

STARLINK-37501

運用中通信SSO
NORAD 69296·PAYLOAD·🇺🇸 United States

打ち上げ May 30, 2026 から Vandenberg Space Force Base

Loading…

次のパス (今後24時間)

TLE

最新Source: CelesTrak SupGP

元期: Sep 14, 2026, 20:59 UTC

1 69296C 26119A   26257.87479167  .00038113  00000+0  11836-2 0  2575
2 69296  97.2824 282.6313 0001311  88.2851  45.1116 15.33406784    19

AllMySatでSTARLINK-37501をリアルタイム追跡

Download on the App Store